目前分類:奈奈手作/市售玩具&親子遊戲 (49)

瀏覽方式: 標題列表 簡短摘要
發表時間 文章標題 人氣 留言
2016-06-11 【奈奈自製】送人自用兩相宜的造型磁鐵~5Y3M (735) (0)
2016-06-11 【奈奈自製】六格連環漫畫(貼畫)~5Y3M (150) (0)
2016-05-31 【好物分享】好順手的"JOVI大三角安全蠟筆"讓奈奈晉升奈卡索 (663) (0)
2016-05-23 【好物分享】滿足孩子的天馬行空,可隨意彎曲的美國 Wikki Stix 威奇思蠟繩 (560) (2)
2015-12-11 【奈媽DIY】屬於自己獨一無二的聖誕水晶瓶/冷靜瓶~奈奈直呼下雪了~4Y9M (2921) (1)
2015-12-01 【奈媽DIY】可回收再利用的聖誕造景~聖誕樹/聖誕吊飾~4Y8M (5604) (0)
2015-11-29 【奈媽DIY】天天開心的12月聖誕倒數日曆/聖誕降臨曆/聖誕節抽抽樂~紙箱紙捲改造~4Y8M (2034) (0)
2015-10-06 【奈媽DIY】紙箱改造變身成救援小英雄波力Poli~萬聖節造型~4Y7M (18935) (1)
2015-09-06 【奈奈自製】是奈奈需要還是媽咪需要的魔法瓶(冷靜瓶/仙女瓶/金蔥瓶)?! (2997) (1)
2015-07-16 【奈媽自製】DIY磁性道路,前進或轉彎自己決定~外出玩具包又多一樣~4Y4M (4755) (0)
2015-07-11 【奈奈自製】玩輕黏土捏造世界著名建築物~4Y4M (1722) (0)
2015-06-29 【奈奈自製】手腳模麵粉版VS輕黏土版大PK之大手牽小手紀錄,更是裝飾的點綴~4Y3M (4125) (1)
2015-06-20 【奈奈自製】貼紙書再進階(重複貼)~是貼紙也是創意畫~4Y3M (11514) (0)
2015-06-17 【節日遊戲】炎熱的端午節來顆冰涼的冰粽吧(含粽子摺紙教學步驟)~4Y3M (2147) (0)
2015-05-20 【大阪行戰利品分享】CP值超高的BlockLabo麵包超人積木組(桶)有盪鞦韆與滑梯唷~3Y6M (2492) (0)
2015-05-07 【奈奈自製】奈奈玩到黏你千遍也不厭倦的貼紙書大翻身~2Y5M (4394) (1)
2015-04-25 【科學遊戲】用牛奶與色素來作畫吧~4Y1M (525) (0)
2015-04-20 【摺紙激推】大創造型色紙~主題:飛機(含摺紙教學步驟) (1320) (0)
2015-03-24 [奈奈自製]Peppa pig佩佩小豬全家出遊去~小豬敞篷車 (667) (0)
2015-03-20 [好物分享]結合"木製積木"和"樂高"趣味的美國tegu磁性積木/磁鐵樂高 (3609) (0)
2015-01-29 [奈奈自製]刮畫紙~3Y10M (7140) (0)
2015-01-28 [好物分享]法國智荷DJECO馬賽克釘釘樂~3Y8M (1195) (0)
2015-01-20 [奈奈自製]冰棒棍最新力作~冰棒棍手環~3Y10M (2114) (0)
2015-01-17 [好物分享]2Y~讓洗澡變得更有趣-ALEX洗澡蠟筆 (312) (0)
2015-01-16 [奈奈創造]整個庭院都是我的大畫布~3Y10M (101) (0)
2015-01-03 [奈奈自製]軟磁鐵白板牆/塗鴉牆~玩法懶人包一次全收藏 (40034) (0)
2014-12-22 [奈奈佈置]聖誕樹~3Y9M (1371) (1)
2014-12-22 [好物分享]~3Y9M奈奈變身畢卡索之非常有成就感的DIY數字油畫 (2042) (0)
2014-12-19 [好物分享]~幼教好幫手-Kizipad 幼兒教育平板 奈奈看Peppa Pig不用再跟大人搶啦 (555) (0)
2014-11-26 [奈奈自製]彩色磁鐵冰棒棍妙用~3Y8M (1934) (0)
2014-11-23 [奈奈自製]冰棒棍變身聖誕裝飾~3Y8M (3341) (0)
2014-11-13 [奈奈自製]變身泡泡~自製馬卡龍色系"彩虹奶昔"~3Y7M (469) (0)
2014-11-07 [奈奈自製]萬聖節彩蛋+字母=新奇認字母 (528) (0)
2014-11-02 [好物分享]~3Y8M 玩玉米創意黏土/神奇努豆~像乖乖輕巧好玩又好攜帶 (1810) (0)
2014-10-28 [奈奈自製]不到百元就可做萬聖節"貓頭鷹"造型+應景手指畫~3Y7M (1659) (1)
2014-10-26 [奈奈自製]小孩瘋狂大人愛玩的變身吹泡泡&自製泡泡水~3Y (1519) (0)
2014-10-16 [奈奈自製]"好吃"色素冰棒~3Y5M (920) (0)
2014-10-10 [奈奈自製]外出打發屁孩的好物-樂高袋~3Y7M(需要無上色OK牌大顆粒電子檔可留MAIL給我) (5186) (84)
2014-10-05 [好物分享]~3Y7M 法國DJECO智荷拼圖~仙履奇緣拼圖(內有媽咪訓練拼圖心歷路程) (1409) (2)
2014-10-02 [好物分享]~3Y6M Kinetic SanD~奈奈也來動力沙一下 (1838) (0)
2014-09-16 [奈奈自製]閃亮亮春聯~2Y10M (546) (0)
2014-09-15 [奈奈自製]形形色色磁鐵片~2Y10M (3160) (3)
2014-09-09 [奈奈自製]紙娃娃再進階!把家人圈入獨一無二的磁鐵娃娃王國~2Y8M (2314) (0)
2014-09-07 [奈奈自製]好玩的認識顏色與形狀的分類~2Y6M (591) (0)
2014-09-02 [奈奈自製]彈珠檯~歡迎來PK~2Y5Y (1251) (0)
2014-08-31 [奈奈自製]水接龍~夏天水真好玩~2Y5M (1286) (0)
2014-08-30 [奈奈自製]對應拼圖~認識形狀顏色~2Y4M (2114) (0)
2014-08-28 [奈奈自製]2種 迷宮~珠珠繞呀繞~2Y3M (1134) (0)
2014-08-28 [自製]奈奈廚房之民歌西餐廳~歡迎大家來吃流水席~1Y6M (369) (4)